Retour au catalogue

CZ-4B DEB

ActifSSO
NORAD 34223·DEBRIS·🇨🇳 China

Lancé May 15, 2002 depuis Taiyuan Satellite Launch Center

Loading…

Prochains Passages (prochaines 24 heures)

TLE

VieillissantSource: Space-Track

Époque: Sep 10, 2026, 23:54 UTC

1 34223U 02024H   26253.99587082  .00000609  00000-0  37455-3 0  9990
2 34223  99.0498 305.2700 0129486 118.7380 242.6869 14.05250665223390

Suivez CZ-4B DEB en temps réel avec AllMySat

Download on the App Store